Location: Battersea Observatory
(44.4318°N, 76.3841°W)
Time: 21:04:32
(UTC-04:00)

Tiros 1 despin weight - Pass Details

Date: 23 January 2022
Orbit: 592 x 639 km, 48.2° (Epoch: 25 May)

Event Time Altitude Azimuth Distance (km) Brightness Sun altitude
Rises 17:16:40 0° 223° (SW) 2,865 ? -3.1°
Reaches altitude 10° 17:19:02 10° 216° (SW) 1,972 ? -3.5°
Maximum altitude 17:23:19 42° 146° (SE) 885 ? -4.2°
Drops below altitude 10° 17:27:41 10° 75° (ENE) 2,010 ? -4.9°
Enters shadow 17:28:35 - 72° (ENE) 2,347 ? -5.1°
Sets 17:30:06 0° 69° (ENE) 2,928 - -5.3°
